�������l�o���
Date,Time,MP-1(��Sv/h),MP-2(��Sv/h),MP-3(��Sv/h),MP-4(��Sv/h),MP-5(��Sv/h),MP-6(��Sv/h),MP-7(��Sv/h),MP-8(��Sv/h),����,����(m/s),���J
2023/04/15,00:00,0.577,0.839,0.506,1.050,0.742,0.328,0.584,0.550,�쐼,3.6,��
2023/04/15,00:10,0.579,0.837,0.504,1.049,0.742,0.328,0.584,0.551,�쐼,2.6,��
2023/04/15,00:20,0.577,0.839,0.504,1.050,0.742,0.329,0.584,0.551,�쐼,2.6,��
2023/04/15,00:30,0.578,0.840,0.503,1.050,0.742,0.328,0.584,0.552,�쐼,2.3,��
2023/04/15,00:40,0.579,0.838,0.504,1.050,0.742,0.328,0.585,0.551,�쐼,2.8,��
2023/04/15,00:50,0.579,0.839,0.502,1.050,0.742,0.328,0.584,0.550,���쐼,2.0,��
2023/04/15,01:00,0.577,0.839,0.504,1.049,0.743,0.327,0.585,0.552,�k��,1.8,��
2023/04/15,01:10,0.578,0.838,0.502,1.051,0.742,0.328,0.585,0.551,�k,2.3,��
2023/04/15,01:20,0.578,0.840,0.502,1.051,0.744,0.327,0.585,0.552,�k,2.3,��
2023/04/15,01:30,0.578,0.838,0.505,1.050,0.744,0.328,0.584,0.551,�k�k��,5.3,��
2023/04/15,01:40,0.579,0.837,0.504,1.051,0.743,0.328,0.586,0.550,�k�k��,5.5,��
2023/04/15,01:50,0.576,0.839,0.503,1.051,0.744,0.329,0.585,0.552,�k�k��,6.0,��
2023/04/15,02:00,0.577,0.841,0.504,1.053,0.743,0.328,0.584,0.551,�k�k��,6.6,��
2023/04/15,02:10,0.575,0.839,0.501,1.049,0.741,0.328,0.584,0.552,�k,8.0,��
2023/04/15,02:20,0.577,0.841,0.503,1.051,0.742,0.326,0.583,0.551,�k,8.0,��
2023/04/15,02:30,0.577,0.837,0.504,1.049,0.743,0.328,0.583,0.550,�k,8.3,��
2023/04/15,02:40,0.577,0.839,0.504,1.051,0.743,0.327,0.582,0.552,�k,8.0,��
2023/04/15,02:50,0.577,0.839,0.504,1.050,0.742,0.327,0.582,0.551,�k,5.6,��
2023/04/15,03:00,0.576,0.839,0.502,1.049,0.741,0.328,0.583,0.551,�k,5.2,��
2023/04/15,03:10,0.577,0.839,0.504,1.050,0.744,0.327,0.584,0.552,�k�k��,5.1,��
2023/04/15,03:20,0.577,0.837,0.502,1.050,0.742,0.327,0.584,0.552,�k�k��,4.0,��
2023/04/15,03:30,0.575,0.840,0.504,1.052,0.743,0.326,0.583,0.551,�k�k��,2.6,��
2023/04/15,03:40,0.576,0.840,0.504,1.048,0.741,0.326,0.582,0.551,�k,0.9,��
2023/04/15,03:50,0.576,0.840,0.501,1.050,0.741,0.328,0.585,0.550,�k�k��,1.1,��
2023/04/15,04:00,0.576,0.840,0.503,1.049,0.744,0.328,0.585,0.552,�k,2.0,��
2023/04/15,04:10,0.577,0.837,0.502,1.051,0.743,0.327,0.584,0.550,�k�k��,2.5,��
2023/04/15,04:20,0.576,0.837,0.502,1.050,0.742,0.327,0.584,0.551,�k��,2.9,��
2023/04/15,04:30,0.576,0.838,0.502,1.051,0.741,0.328,0.583,0.552,�k��,4.1,��
2023/04/15,04:40,0.575,0.839,0.503,1.052,0.742,0.327,0.584,0.552,�k��,3.9,��
2023/04/15,04:50,0.576,0.837,0.503,1.052,0.743,0.326,0.584,0.552,�k��,4.9,�L
2023/04/15,05:00,0.578,0.837,0.502,1.050,0.743,0.328,0.583,0.551,�k��,4.6,��
2023/04/15,05:10,0.575,0.838,0.505,1.050,0.742,0.328,0.583,0.551,�k��,5.2,��
2023/04/15,05:20,0.576,0.838,0.503,1.052,0.741,0.327,0.584,0.549,�k�k��,5.5,��
2023/04/15,05:30,0.577,0.838,0.504,1.051,0.741,0.327,0.584,0.551,�k�k��,5.5,�L
2023/04/15,05:40,0.578,0.838,0.503,1.051,0.743,0.327,0.584,0.552,�k�k��,5.4,�L
2023/04/15,05:50,0.578,0.837,0.502,1.050,0.745,0.327,0.585,0.552,�k�k��,5.4,�L
2023/04/15,06:00,0.576,0.838,0.504,1.051,0.742,0.328,0.584,0.552,�k�k��,4.9,�L
2023/04/15,06:10,0.577,0.838,0.503,1.049,0.743,0.327,0.585,0.552,�k�k��,5.6,�L
2023/04/15,06:20,0.578,0.838,0.503,1.052,0.744,0.327,0.584,0.550,�k�k��,6.3,�L
2023/04/15,06:30,0.577,0.840,0.505,1.054,0.742,0.327,0.584,0.552,�k�k��,6.8,�L
2023/04/15,06:40,0.579,0.840,0.504,1.052,0.743,0.329,0.585,0.550,�k�k��,7.1,�L
2023/04/15,06:50,0.577,0.839,0.504,1.052,0.745,0.328,0.587,0.552,�k�k��,6.7,�L
2023/04/15,07:00,0.578,0.840,0.504,1.051,0.746,0.329,0.585,0.552,�k�k��,6.1,�L
2023/04/15,07:10,0.577,0.839,0.505,1.053,0.745,0.328,0.585,0.553,�k�k��,5.4,�L
2023/04/15,07:20,0.577,0.840,0.505,1.053,0.743,0.328,0.584,0.551,�k�k��,5.1,�L
2023/04/15,07:30,0.575,0.839,0.504,1.051,0.742,0.329,0.584,0.551,�k�k��,5.3,�L
2023/04/15,07:40,0.579,0.840,0.507,1.051,0.742,0.329,0.582,0.550,�k�k��,5.2,�L
2023/04/15,07:50,0.579,0.841,0.505,1.054,0.743,0.329,0.584,0.552,�k�k��,4.7,�L
2023/04/15,08:00,0.578,0.839,0.507,1.050,0.743,0.329,0.584,0.553,�k�k��,5.1,�L
2023/04/15,08:10,0.578,0.839,0.505,1.053,0.745,0.329,0.585,0.553,�k�k��,4.1,�L
2023/04/15,08:20,0.578,0.839,0.505,1.050,0.743,0.330,0.585,0.552,�k�k��,4.6,�L
2023/04/15,08:30,0.576,0.838,0.505,1.052,0.744,0.330,0.585,0.551,�k,4.3,�L
2023/04/15,08:40,0.578,0.840,0.504,1.052,0.742,0.330,0.586,0.553,�k,4.9,�L
2023/04/15,08:50,0.577,0.839,0.506,1.052,0.745,0.330,0.585,0.551,�k,4.9,�L
2023/04/15,09:00,0.579,0.842,0.504,1.053,0.743,0.330,0.585,0.553,�k,4.9,�L
2023/04/15,09:10,0.577,0.837,0.505,1.051,0.742,0.330,0.584,0.551,�k,5.1,�L
2023/04/15,09:20,0.579,0.834,0.505,1.052,0.741,0.330,0.583,0.551,�k,5.9,�L
2023/04/15,09:30,0.576,0.836,0.505,1.051,0.739,0.331,0.582,0.552,�k,6.5,�L
2023/04/15,09:40,0.579,0.835,0.505,1.051,0.737,0.330,0.583,0.550,�k,5.8,�L
2023/04/15,09:50,0.576,0.833,0.505,1.048,0.738,0.331,0.583,0.549,�k,4.7,�L
2023/04/15,10:00,0.576,0.830,0.503,1.049,0.737,0.330,0.584,0.547,�k,4.9,�L
2023/04/15,10:10,0.576,0.833,0.504,1.049,0.736,0.329,0.582,0.550,�k,4.4,�L
2023/04/15,10:20,0.577,0.832,0.502,1.050,0.735,0.331,0.584,0.549,�k,4.8,�L
2023/04/15,10:30,0.577,0.833,0.502,1.048,0.735,0.329,0.582,0.550,�k,4.8,�L
2023/04/15,10:40,0.574,0.832,0.502,1.046,0.736,0.328,0.583,0.549,�k,5.4,��
2023/04/15,10:50,0.575,0.831,0.501,1.050,0.736,0.327,0.582,0.548,�k,4.7,��
2023/04/15,11:00,0.573,0.829,0.501,1.047,0.736,0.326,0.582,0.549,�k�k��,4.2,�L
2023/04/15,11:10,0.573,0.827,0.502,1.047,0.734,0.325,0.583,0.548,�k�k��,4.8,�L
2023/04/15,11:20,0.570,0.828,0.501,1.046,0.733,0.327,0.583,0.547,�k�k��,4.2,�L
2023/04/15,11:30,0.573,0.828,0.501,1.047,0.734,0.326,0.581,0.547,�k�k��,3.7,�L
2023/04/15,11:40,0.572,0.828,0.502,1.049,0.734,0.327,0.583,0.547,�k�k��,3.1,�L
2023/04/15,11:50,0.571,0.824,0.501,1.049,0.733,0.328,0.583,0.547,�k�k��,2.0,�L
2023/04/15,12:00,0.572,0.826,0.501,1.046,0.733,0.328,0.581,0.547,�k,1.5,�L
2023/04/15,12:10,0.573,0.826,0.501,1.046,0.730,0.330,0.580,0.547,�k�k��,1.9,�L
2023/04/15,12:20,0.572,0.826,0.501,1.047,0.730,0.330,0.582,0.546,�k,1.5,�L
2023/04/15,12:30,0.572,0.826,0.501,1.045,0.730,0.329,0.580,0.547,�k�k��,2.3,�L
2023/04/15,12:40,0.574,0.825,0.500,1.047,0.728,0.329,0.581,0.547,�k��,1.1,�L
2023/04/15,12:50,0.573,0.825,0.500,1.044,0.727,0.329,0.581,0.547,�k�k��,0.9,�L
2023/04/15,13:00,0.574,0.825,0.500,1.045,0.726,0.328,0.580,0.548,�k�k��,0.8,�L
2023/04/15,13:10,0.570,0.821,0.499,1.044,0.724,0.329,0.579,0.546,-,CALM,�L
2023/04/15,13:20,0.571,0.817,0.499,1.041,0.724,0.327,0.580,0.546,��쓌,1.5,�L
2023/04/15,13:30,0.569,0.818,0.499,1.039,0.721,0.328,0.577,0.545,��쓌,1.2,�L
2023/04/15,13:40,0.569,0.813,0.496,1.034,0.717,0.327,0.577,0.545,��쓌,1.5,�L
2023/04/15,13:50,0.565,0.811,0.496,1.032,0.717,0.327,0.576,0.543,���쓌,2.0,�L
2023/04/15,14:00,0.564,0.806,0.495,1.028,0.713,0.326,0.574,0.542,�쓌,2.3,�L
2023/04/15,14:10,0.562,0.802,0.493,1.024,0.711,0.326,0.573,0.543,�쓌,2.0,�L
2023/04/15,14:20,0.560,0.799,0.493,1.019,0.709,0.324,0.573,0.543,��쓌,5.1,�L
2023/04/15,14:30,0.559,0.799,0.491,1.020,0.708,0.324,0.575,0.541,��,6.7,�L
2023/04/15,14:40,0.559,0.797,0.492,1.017,0.706,0.325,0.572,0.540,��,6.0,�L
2023/04/15,14:50,0.557,0.795,0.491,1.010,0.704,0.323,0.571,0.538,��,5.7,�L
2023/04/15,15:00,0.559,0.796,0.489,1.010,0.703,0.323,0.570,0.540,��,5.1,�L
2023/04/15,15:10,0.554,0.792,0.490,1.010,0.702,0.323,0.571,0.540,��쓌,4.7,�L
2023/04/15,15:20,0.554,0.792,0.488,1.006,0.699,0.322,0.570,0.538,��쓌,5.7,�L
2023/04/15,15:30,0.554,0.791,0.489,1.001,0.698,0.322,0.567,0.536,��쓌,5.2,�L
2023/04/15,15:40,0.551,0.788,0.488,0.999,0.697,0.323,0.569,0.537,��쓌,6.3,�L
2023/04/15,15:50,0.554,0.789,0.488,0.997,0.697,0.323,0.566,0.537,��,8.1,�L
2023/04/15,16:00,0.553,0.786,0.488,0.997,0.699,0.322,0.567,0.538,��쓌,8.1,�L
2023/04/15,16:10,0.552,0.786,0.486,0.994,0.697,0.322,0.567,0.536,��,7.8,�L
2023/04/15,16:20,0.552,0.786,0.488,0.991,0.695,0.322,0.565,0.537,��,8.5,�L
2023/04/15,16:30,0.553,0.786,0.487,0.992,0.695,0.320,0.566,0.536,��쓌,10.5,�L
2023/04/15,16:40,0.552,0.790,0.488,0.990,0.695,0.321,0.567,0.538,��,9.4,�L
2023/04/15,16:50,0.552,0.788,0.487,0.991,0.694,0.322,0.566,0.536,��,9.4,�L
2023/04/15,17:00,0.551,0.788,0.486,0.989,0.690,0.323,0.566,0.537,��,8.2,�L
2023/04/15,17:10,0.548,0.786,0.486,0.989,0.691,0.319,0.564,0.536,��,8.9,�L
2023/04/15,17:20,0.550,0.788,0.485,0.988,0.691,0.321,0.566,0.535,��,8.6,�L
2023/04/15,17:30,0.551,0.785,0.484,0.989,0.691,0.321,0.565,0.537,��쓌,10.8,�L
2023/04/15,17:40,0.550,0.787,0.483,0.987,0.693,0.319,0.566,0.537,��쓌,11.3,�L
2023/04/15,17:50,0.548,0.786,0.483,0.989,0.691,0.319,0.566,0.535,��,9.5,�L
2023/04/15,18:00,0.548,0.786,0.484,0.987,0.690,0.320,0.566,0.536,��,7.4,�L
2023/04/15,18:10,0.550,0.787,0.484,0.987,0.692,0.319,0.567,0.537,��,8.0,�L
2023/04/15,18:20,0.549,0.788,0.482,0.986,0.693,0.318,0.566,0.537,��,6.5,�L
2023/04/15,18:30,0.549,0.787,0.481,0.986,0.693,0.318,0.565,0.538,��,6.1,�L
2023/04/15,18:40,0.548,0.788,0.481,0.988,0.693,0.316,0.567,0.539,��,6.0,�L
2023/04/15,18:50,0.549,0.787,0.481,0.986,0.693,0.319,0.566,0.537,��,6.8,�L
2023/04/15,19:00,0.547,0.788,0.482,0.988,0.691,0.317,0.568,0.539,��,7.3,�L
2023/04/15,19:10,0.548,0.788,0.482,0.987,0.692,0.318,0.566,0.539,��,7.3,�L
2023/04/15,19:20,0.549,0.786,0.483,0.987,0.692,0.318,0.568,0.539,��,6.9,�L
2023/04/15,19:30,0.550,0.788,0.480,0.986,0.694,0.317,0.568,0.539,��,5.7,�L
2023/04/15,19:40,0.548,0.786,0.481,0.988,0.692,0.318,0.567,0.538,��,5.2,�L
2023/04/15,19:50,0.547,0.789,0.482,0.987,0.694,0.318,0.567,0.538,��,4.4,�L
2023/04/15,20:00,0.548,0.789,0.481,0.986,0.693,0.317,0.568,0.538,��,4.4,�L
2023/04/15,20:10,0.548,0.788,0.482,0.986,0.694,0.318,0.569,0.539,��,3.5,�L
2023/04/15,20:20,0.550,0.789,0.481,0.987,0.694,0.318,0.569,0.537,��,4.0,�L
2023/04/15,20:30,0.547,0.787,0.481,0.987,0.693,0.318,0.569,0.538,��,3.8,�L
2023/04/15,20:40,0.549,0.787,0.480,0.987,0.691,0.320,0.567,0.538,��,3.2,�L
2023/04/15,20:50,0.548,0.788,0.481,0.986,0.691,0.319,0.566,0.538,��,2.3,�L
2023/04/15,21:00,0.548,0.788,0.482,0.985,0.692,0.318,0.568,0.537,��,1.7,�L
2023/04/15,21:10,0.547,0.787,0.480,0.986,0.693,0.319,0.566,0.537,��,1.2,�L
2023/04/15,21:20,0.547,0.787,0.481,0.987,0.693,0.316,0.567,0.538,��,0.9,�L
2023/04/15,21:30,0.547,0.786,0.480,0.986,0.690,0.317,0.566,0.537,��,0.6,�L
2023/04/15,21:40,0.547,0.785,0.481,0.986,0.691,0.317,0.567,0.537,��쓌,0.8,�L
2023/04/15,21:50,0.546,0.786,0.480,0.986,0.690,0.317,0.566,0.538,���k��,0.6,�L
2023/04/15,22:00,0.548,0.784,0.481,0.986,0.690,0.317,0.564,0.538,�k��,1.2,�L
2023/04/15,22:10,0.546,0.786,0.480,0.984,0.689,0.317,0.566,0.537,�k��,1.8,�L
2023/04/15,22:20,0.547,0.784,0.481,0.983,0.689,0.317,0.565,0.537,�k��,2.3,�L
2023/04/15,22:30,0.546,0.783,0.478,0.981,0.690,0.316,0.565,0.538,�k�k��,2.0,�L
2023/04/15,22:40,0.546,0.783,0.480,0.982,0.689,0.318,0.564,0.538,�k�k��,2.6,�L
2023/04/15,22:50,0.547,0.782,0.481,0.979,0.689,0.319,0.565,0.538,�k��,3.3,�L
2023/04/15,23:00,0.548,0.782,0.483,0.979,0.688,0.320,0.563,0.538,�k��,4.2,�L
2023/04/15,23:10,0.548,0.779,0.483,0.979,0.688,0.320,0.565,0.535,�k��,5.2,�L
2023/04/15,23:20,0.548,0.780,0.482,0.978,0.688,0.321,0.564,0.536,�k��,5.7,�L
2023/04/15,23:30,0.548,0.781,0.484,0.979,0.689,0.321,0.564,0.535,�k��,6.3,�L
2023/04/15,23:40,0.548,0.779,0.485,0.980,0.688,0.321,0.564,0.535,�k��,7.8,�L
2023/04/15,23:50,0.548,0.780,0.484,0.976,0.686,0.321,0.563,0.536,�k��,8.1,�L
